Date,TemperatureHighF,TemperatureAvgF,TemperatureLowF,DewpointHighF,DewpointAvgF,DewpointLowF,HumidityHigh,HumidityAvg,HumidityLow,PressureMaxIn,PressureMinIn,WindSpeedMaxMPH,WindSpeedAvgMPH,GustSpeedMaxMPH,PrecipitationSumIn
2014-3-5,41,40,39,23,22,21,48,47,47,0.00,40.00,15,15,19,0.00
2014-3-6,52,52,52,24,24,24,32,32,32,0.00,40.00,21,21,26,0.00
2014-3-8,-200,0,200,-100,-100,-100,0,0,100,0.00,40.00,1,1,6,0.00
2014-3-9,54,45,39,22,19,18,49,36,23,0.00,40.00,8,5,13,0.00
2014-3-10,51,51,51,23,23,23,33,33,33,0.00,40.00,24,24,35,0.00
2014-3-11,26,26,26,18,18,18,71,71,71,0.00,40.00,24,24,29,0.00
2014-4-19,55,28,55,21,-40,-100,25,12,25,0.00,40.00,10,10,18,0.00
2014-4-20,48,48,48,13,13,13,24,24,24,0.00,40.00,4,4,8,0.00
2014-4-21,61,57,50,20,18,17,27,22,19,0.00,40.00,17,14,23,0.00
2014-4-22,56,50,45,23,20,16,31,29,27,0.00,40.00,15,13,18,0.00
2014-4-23,47,44,40,16,9,5,31,23,18,0.00,40.00,29,21,37,0.00
2014-4-24,41,39,37,10,8,7,28,27,27,0.00,40.00,21,13,29,0.00
2014-4-25,58,44,39,28,22,20,46,42,25,0.00,40.00,11,3,17,0.00
2014-8-1,75,70,66,38,38,35,31,30,26,0.00,40.00,19,10,24,0.00
2014-8-2,82,70,60,48,46,44,58,44,25,0.00,40.00,6,5,12,0.00
2014-8-3,80,74,69,48,46,45,47,38,29,0.00,40.00,12,8,20,0.00
2014-8-4,73,68,63,56,52,49,77,60,42,0.00,40.00,7,5,9,0.00
2014-8-5,60,60,60,60,60,60,99,99,99,0.00,40.00,13,8,17,0.00
2014-8-7,66,66,66,42,42,42,40,40,40,0.00,40.00,14,14,22,0.00
2014-8-8,79,71,59,42,40,37,51,32,24,0.00,40.00,32,12,44,0.00
2014-8-9,71,66,62,44,42,40,47,41,37,0.00,40.00,18,9,23,0.00
2014-8-10,82,82,82,38,38,38,21,21,21,0.00,40.00,10,10,16,0.00
2014-8-11,83,83,83,43,43,43,25,25,25,0.00,40.00,7,7,11,0.00
2014-8-12,87,75,60,44,39,36,40,28,22,0.00,40.00,9,8,14,0.00
2014-8-13,83,79,76,44,44,43,30,28,24,0.00,40.00,22,14,26,0.00
2014-8-14,74,69,60,57,51,43,86,55,39,0.00,40.00,17,12,21,0.00
2014-8-15,83,75,68,43,40,35,40,29,21,0.00,40.00,14,9,16,0.00
2014-8-16,79,70,61,44,35,31,35,28,21,0.00,40.00,10,7,16,0.00
2014-8-17,82,76,67,43,40,38,41,28,22,0.00,40.00,21,8,24,0.00
2014-8-18,75,67,61,44,42,40,46,40,33,0.00,40.00,12,9,14,0.00
2014-10-30,54,50,42,29,27,23,46,40,37,0.00,40.00,12,9,14,0.00
2014-10-31,63,54,40,33,28,22,53,38,29,0.00,40.00,14,8,17,0.00
2014-11-1,47,24,47,22,11,22,48,42,36,0.00,40.00,11,10,15,0.00
2014-11-2,46,44,36,25,24,20,53,44,41,0.00,40.00,19,10,25,0.00
2014-11-3,37,34,31,27,26,21,86,71,51,0.00,40.00,7,4,9,0.00
2014-11-4,45,39,31,24,22,20,65,52,39,0.00,40.00,9,7,11,0.00
2014-11-5,53,51,42,26,25,24,48,35,33,0.00,40.00,17,8,20,0.00
2014-11-6,56,54,50,28,27,24,37,36,34,0.00,40.00,11,6,14,0.00
2014-11-7,51,51,51,26,26,26,37,37,37,0.00,40.00,6,6,17,0.00
2014-11-8,35,18,35,23,12,23,61,30,61,0.00,40.00,13,12,17,0.00
2014-11-9,50,50,50,34,34,34,52,52,52,0.00,40.00,21,21,29,0.00
2014-11-10,9,9,9,9,9,9,99,99,99,0.00,40.00,12,12,21,0.00
2014-11-11,-3,-5,-7,-4,-6,-7,98,96,95,0.00,40.00,21,16,25,0.00
2014-11-12,-2,-2,-2,-4,-4,-4,93,93,93,0.00,40.00,8,8,9,0.00